.
WxDataArchive / Data Records for 2008-06-08
2008-06-07 June 2008 2008-06-09

Data Records for Sunday, 08 June 2008

Time	Temp	Chill	HIndex	Humid	Dewpt	 Wind 	HiWind	WindDir	Rain 	Barom 
-----	----	-----	------	-----	-----	------	------	-------	-----	----- 
00:00	76.1	76.1	76.6	86	71.6	1	2	248	0.00	29.883 
00:05	76.1	76.1	76.6	86	71.6	1	3	202	0.00	29.878 
00:10	76.3	76.3	77.0	86	71.8	1	4	270	0.00	29.879 
00:15	76.5	76.5	77.5	85	71.6	0	3	248	0.00	29.875 
00:20	76.5	76.5	77.5	85	71.6	1	5	248	0.00	29.877 
00:25	76.5	76.5	77.5	85	71.6	1	5	248	0.00	29.877 
00:30	76.3	76.3	77.1	85	71.4	0	2	248	0.00	29.879 
00:35	76.3	76.3	77.1	85	71.4	0	1	248	0.00	29.879 
00:40	76.1	76.1	76.7	85	71.2	0	2	248	0.00	29.878 
00:45	76.1	76.1	76.7	85	71.2	0	1	248	0.00	29.879 
00:50	76.1	76.1	76.7	85	71.2	0	1	248	0.00	29.880 
00:55	76.3	76.3	77.1	85	71.4	0	4	248	0.00	29.880 
01:00	76.1	76.1	76.7	85	71.2	0	3	270	0.00	29.878 
01:05	76.1	76.1	76.7	85	71.2	0	1	270	0.00	29.877 
01:10	76.0	76.0	76.6	85	71.2	0	1	270	0.00	29.871 
01:15	76.0	76.0	76.6	85	71.2	0	2	270	0.00	29.873 
01:20	75.8	75.8	76.2	85	71.0	0	6	248	0.00	29.865 
01:25	76.0	76.0	76.6	85	71.2	0	3	248	0.00	29.865 
01:30	76.0	76.0	76.6	85	71.2	1	3	248	0.00	29.863 
01:35	76.1	76.1	76.7	85	71.2	1	3	248	0.00	29.864 
01:40	76.3	76.3	77.2	84	71.1	2	4	248	0.00	29.862 
01:45	76.5	76.5	77.5	84	71.3	1	5	270	0.00	29.862 
01:50	76.5	76.5	77.5	84	71.3	1	4	180	0.00	29.858 
01:55	76.5	76.5	77.5	84	71.3	1	4	248	0.00	29.856 
02:00	76.5	76.5	77.6	83	70.9	1	4	248	0.00	29.852 
02:05	76.7	76.7	77.9	83	71.1	2	9	248	0.00	29.855 
02:10	76.7	76.7	78.0	82	70.8	2	5	248	0.00	29.859 
02:15	76.7	76.7	78.0	82	70.8	1	7	248	0.00	29.853 
02:20	76.8	76.8	78.2	82	70.9	2	4	248	0.00	29.856 
02:25	76.8	76.8	78.2	81	70.5	1	2	248	0.00	29.857 
02:30	76.8	76.8	78.2	81	70.5	2	5	248	0.00	29.855 
02:35	76.8	76.8	78.2	81	70.5	2	10	248	0.00	29.855 
02:40	76.8	76.8	78.2	81	70.5	2	6	248	0.00	29.858 
02:45	77.0	77.0	78.5	81	70.7	2	5	248	0.00	29.858 
02:50	77.0	77.0	78.6	80	70.3	2	5	248	0.00	29.855 
02:55	77.0	77.0	78.6	80	70.3	2	6	248	0.00	29.854 
03:00	77.0	77.0	78.6	80	70.3	2	6	248	0.00	29.851 
03:05	77.0	77.0	78.6	80	70.3	1	4	248	0.00	29.849 
03:10	77.0	77.0	78.6	80	70.3	2	5	248	0.00	29.856 
03:15	77.0	77.0	78.6	80	70.3	2	6	248	0.00	29.857 
03:20	77.0	77.0	78.6	80	70.3	1	4	248	0.00	29.859 
03:25	77.0	77.0	78.6	80	70.3	1	4	248	0.00	29.858 
03:30	76.8	76.8	78.2	80	70.1	1	5	248	0.00	29.858 
03:35	76.8	76.8	78.2	80	70.1	1	4	248	0.00	29.860 
03:40	76.7	76.7	78.1	80	70.0	1	3	248	0.00	29.861 
03:45	76.7	76.7	78.1	80	70.0	1	3	248	0.00	29.861 
03:50	76.5	76.5	77.8	80	69.9	0	2	248	0.00	29.862 
03:55	76.5	76.5	77.8	80	69.9	1	4	248	0.00	29.861 
04:00	76.7	76.7	78.1	80	70.0	1	4	248	0.00	29.862 
04:05	76.7	76.7	78.1	80	70.0	0	2	248	0.00	29.860 
04:10	76.5	76.5	77.8	80	69.9	0	2	248	0.00	29.860 
04:15	76.3	76.3	77.5	80	69.7	0	3	248	0.00	29.861 
04:20	76.3	76.3	77.5	80	69.7	0	2	248	0.00	29.861 
04:25	76.1	76.1	77.1	81	69.8	1	4	248	0.00	29.865 
04:30	76.1	76.1	77.1	81	69.8	0	2	248	0.00	29.864 
04:35	76.1	76.1	77.1	81	69.8	0	2	248	0.00	29.867 
04:40	76.1	76.1	77.1	81	69.8	1	3	248	0.00	29.864 
04:45	76.3	76.3	77.5	80	69.7	1	2	248	0.00	29.865 
04:50	76.3	76.3	77.5	80	69.7	1	3	248	0.00	29.864 
04:55	76.3	76.3	77.5	80	69.7	0	2	248	0.00	29.867 
05:00	76.3	76.3	77.5	80	69.7	1	3	248	0.00	29.867 
05:05	76.1	76.1	77.1	80	69.5	0	2	248	0.00	29.869 
05:10	76.1	76.1	77.1	80	69.5	0	2	248	0.00	29.872 
05:15	76.1	76.1	77.1	80	69.5	1	3	248	0.00	29.873 
05:20	76.1	76.1	77.1	80	69.5	1	3	248	0.00	29.870 
05:25	76.1	76.1	77.1	80	69.5	0	2	248	0.00	29.874 
05:30	76.0	76.0	77.0	80	69.4	0	2	248	0.00	29.874 
05:35	76.0	76.0	76.9	81	69.7	1	3	248	0.00	29.871 
05:40	75.8	75.8	76.6	81	69.5	1	4	248	0.00	29.871 
05:45	75.6	75.6	76.3	81	69.3	1	4	270	0.00	29.873 
05:50	75.6	75.6	76.3	81	69.3	0	3	248	0.00	29.874 
05:55	75.6	75.6	76.3	81	69.3	1	2	248	0.00	29.876 
06:00	75.6	75.6	76.3	81	69.3	1	2	248	0.00	29.874 
06:05	75.8	75.8	76.6	81	69.5	1	5	248	0.00	29.874 
06:10	75.8	75.8	76.6	81	69.5	1	2	248	0.00	29.874 
06:15	76.0	76.0	76.9	81	69.7	1	3	248	0.00	29.874 
06:20	76.1	76.1	77.1	81	69.8	2	4	248	0.00	29.876 
06:25	76.1	76.1	77.1	80	69.5	1	5	248	0.00	29.877 
06:30	76.3	76.3	77.5	80	69.7	1	3	270	0.00	29.878 
06:35	76.5	76.5	77.8	80	69.9	1	3	270	0.00	29.878 
06:40	76.8	76.8	78.3	79	69.8	2	5	248	0.00	29.879 
06:45	77.0	77.0	78.6	79	70.0	2	4	225	0.00	29.878 
06:50	77.4	77.4	79.3	78	70.0	1	5	248	0.00	29.879 
06:55	77.6	77.6	79.6	77	69.8	1	4	248	0.00	29.881 
07:00	77.7	77.7	79.7	77	69.9	2	6	270	0.00	29.881 
07:05	77.7	77.7	79.7	77	69.9	1	3	248	0.00	29.886 
07:10	77.6	77.6	79.6	77	69.8	1	4	248	0.00	29.888 
07:15	77.4	77.4	79.3	77	69.6	1	4	270	0.00	29.888 
07:20	77.7	77.7	79.7	77	69.9	2	5	248	0.00	29.891 
07:25	78.3	78.3	80.7	76	70.1	2	5	248	0.00	29.890 
07:30	78.1	78.1	80.4	76	69.9	2	6	248	0.00	29.892 
07:35	78.1	78.1	80.4	76	69.9	2	7	248	0.00	29.892 
07:40	78.6	78.6	81.1	75	70.0	2	6	270	0.00	29.891 
07:45	79.2	79.2	82.1	74	70.2	2	6	248	0.00	29.892 
07:50	79.6	79.6	82.6	73	70.2	2	4	248	0.00	29.891 
07:55	79.9	79.9	83.3	74	70.8	1	5	248	0.00	29.889 
08:00	80.3	80.3	83.9	73	70.8	1	3	248	0.00	29.890 
08:05	80.5	80.5	83.9	71	70.2	2	5	248	0.00	29.892 
08:10	80.7	80.7	84.3	71	70.4	3	5	270	0.00	29.892 
08:15	80.7	80.7	84.4	72	70.8	2	5	248	0.00	29.892 
08:20	80.9	80.9	84.8	72	71.0	2	7	270	0.00	29.891 
08:25	81.2	81.2	85.2	71	70.9	2	6	270	0.00	29.890 
08:30	81.8	81.8	86.1	70	71.0	1	2	270	0.00	29.886 
08:35	82.0	82.0	86.4	70	71.2	2	4	270	0.00	29.888 
08:40	82.0	82.0	86.2	69	70.8	2	4	270	0.00	29.888 
08:45	82.2	82.2	86.6	69	71.0	2	6	248	0.00	29.885 
08:50	82.4	82.4	86.7	68	70.8	3	5	248	0.00	29.889 
08:55	82.4	82.4	86.7	68	70.8	3	5	270	0.00	29.889 
09:00	82.4	82.4	87.0	69	71.2	2	5	248	0.00	29.886 
09:05	82.8	82.8	87.2	67	70.7	2	4	248	0.00	29.886 
09:10	83.0	83.0	87.3	66	70.4	2	9	248	0.00	29.885 
09:15	83.4	83.4	88.1	66	70.8	2	5	270	0.00	29.882 
09:20	83.8	83.8	88.6	65	70.7	2	4	248	0.00	29.877 
09:25	83.8	83.8	88.6	65	70.7	3	6	248	0.00	29.876 
09:30	84.0	84.0	88.9	65	70.9	1	3	270	0.00	29.872 
09:35	84.3	84.3	89.2	64	70.8	3	11	270	0.00	29.870 
09:40	84.3	84.3	89.2	64	70.8	2	5	270	0.00	29.864 
09:45	84.3	84.3	89.8	66	71.7	3	7	248	0.00	29.867 
09:50	84.7	84.7	89.6	63	70.7	2	5	248	0.00	29.872 
09:55	85.1	85.1	90.4	63	71.1	3	7	270	0.00	29.865 
10:00	85.1	85.1	91.1	65	72.0	3	7	270	0.00	29.863 
10:05	85.3	85.3	91.2	64	71.7	2	9	248	0.00	29.865 
10:10	85.3	85.3	90.8	63	71.2	3	7	248	0.00	29.864 
10:15	85.5	85.5	91.2	63	71.4	3	6	270	0.00	29.862 
10:20	85.7	85.7	91.2	62	71.1	3	9	270	0.00	29.862 
10:25	85.7	85.7	91.6	63	71.6	3	6	270	0.00	29.867 
10:30	85.7	85.7	91.2	62	71.1	3	6	270	0.00	29.866 
10:35	85.9	85.9	91.3	61	70.9	4	12	248	0.00	29.866 
10:40	85.9	85.9	90.9	60	70.4	3	6	248	0.00	29.863 
10:45	86.1	86.1	92.0	62	71.5	3	13	248	0.00	29.868 
10:50	86.1	86.1	92.0	62	71.5	3	7	270	0.00	29.867 
10:55	86.3	86.3	91.7	60	70.7	3	8	248	0.00	29.869 
11:00	86.5	86.5	92.5	61	71.4	3	7	248	0.00	29.869 
11:05	86.5	86.5	91.7	59	70.4	4	10	270	0.00	29.871 
11:10	86.7	86.7	91.7	58	70.1	4	10	248	0.00	29.871 
11:15	86.7	86.7	92.5	60	71.1	3	7	248	0.00	29.869 
11:20	87.0	87.0	92.7	59	70.9	3	10	270	0.00	29.871 
11:25	87.0	87.0	92.3	58	70.4	4	9	270	0.00	29.871 
11:30	87.2	87.2	93.1	59	71.1	3	5	248	0.00	29.872 
11:35	87.2	87.2	92.7	58	70.6	4	10	270	0.00	29.872 
11:40	87.0	87.0	92.7	59	70.9	3	9	248	0.00	29.873 
11:45	87.0	87.0	91.9	57	69.9	4	9	270	0.00	29.875 
11:50	86.7	86.7	92.1	59	70.6	4	10	270	0.00	29.875 
11:55	87.0	87.0	93.1	60	71.4	2	6	248	0.00	29.873 
12:00	87.4	87.4	93.5	59	71.3	3	7	270	0.00	29.872 
12:05	87.2	87.2	92.7	58	70.6	3	10	248	0.00	29.871 
12:10	87.0	87.0	92.3	58	70.4	4	10	248	0.00	29.862 
12:15	87.2	87.2	93.1	59	71.1	3	9	270	0.00	29.857 
12:20	87.6	87.6	93.0	57	70.4	3	9	270	0.00	29.854 
12:25	88.2	88.2	94.7	58	71.5	2	7	270	0.00	29.851 
12:30	88.6	88.6	95.5	58	71.9	3	11	270	0.00	29.853 
12:35	88.6	88.6	94.1	55	70.3	3	9	270	0.00	29.854 
12:40	88.6	88.6	94.6	56	70.9	3	11	270	0.00	29.853 
12:45	88.2	88.2	94.2	57	71.0	3	11	248	0.00	29.852 
12:50	88.0	88.0	93.4	56	70.3	4	11	270	0.00	29.853 
12:55	88.0	88.0	93.0	55	69.8	4	10	270	0.00	29.851 
13:00	88.0	88.0	93.8	57	70.8	2	7	225	0.00	29.842 
13:05	87.8	87.8	93.4	57	70.6	3	11	270	0.00	29.840 
13:10	88.0	88.0	93.8	57	70.8	3	7	270	0.00	29.839 
13:15	88.4	88.4	93.7	55	70.1	4	11	270	0.00	29.839 
13:20	88.2	88.2	93.4	55	70.0	4	10	270	0.00	29.834 
13:25	88.4	88.4	93.7	55	70.1	2	10	270	0.00	29.830 
13:30	88.8	88.8	94.1	54	70.0	3	9	248	0.00	29.836 
13:35	88.6	88.6	93.7	54	69.8	4	10	270	0.00	29.828 
13:40	88.4	88.4	94.2	56	70.7	3	7	292	0.00	29.831 
13:45	88.4	88.4	93.7	55	70.1	4	10	270	0.00	29.831 
13:50	88.0	88.0	93.4	56	70.3	3	11	248	0.00	29.832 
13:55	87.8	87.8	92.6	55	69.6	4	10	248	0.00	29.824 
14:00	88.2	88.2	93.8	56	70.5	2	5	270	0.00	29.824 
14:05	89.0	89.0	94.0	53	69.6	3	12	270	0.00	29.822 
14:10	89.7	89.7	95.4	53	70.3	3	6	270	0.00	29.820 
14:15	89.3	89.3	94.6	53	69.9	3	10	248	0.00	29.820 
14:20	88.8	88.8	92.8	51	68.3	4	12	270	0.00	29.821 
14:25	89.0	89.0	93.2	51	68.5	3	9	270	0.00	29.823 
14:30	89.0	89.0	92.8	50	67.9	3	9	270	0.00	29.825 
14:35	89.5	89.5	93.2	49	67.8	4	15	270	0.00	29.825 
14:40	89.9	89.9	94.4	50	68.7	3	7	270	0.00	29.825 
14:45	89.9	89.9	94.0	49	68.1	3	5	270	0.00	29.826 
14:50	89.7	89.7	93.2	48	67.4	4	12	270	0.00	29.825 
14:55	89.7	89.7	93.6	49	68.0	2	5	270	0.00	29.826 
15:00	89.5	89.5	93.7	50	68.4	2	10	248	0.00	29.830 
15:05	89.5	89.5	93.7	50	68.4	2	10	248	0.00	29.830 
15:10	88.8	88.8	92.4	50	67.7	3	6	270	0.00	29.830 
15:15	89.5	89.5	94.1	51	68.9	2	7	248	0.00	29.831 
15:20	89.9	89.9	93.5	48	67.5	3	8	270	0.00	29.831 
15:25	90.1	90.1	94.3	49	68.3	3	6	270	0.00	29.831 
15:30	89.9	89.9	93.5	48	67.5	3	9	270	0.00	29.838 
15:35	89.9	89.9	94.4	50	68.7	2	5	270	0.00	29.838 
15:40	90.5	90.5	94.6	48	68.1	3	9	270	0.00	29.838 
15:45	90.3	90.3	94.3	48	67.9	4	11	270	0.00	29.840 
15:50	89.9	89.9	93.5	48	67.5	4	11	270	0.00	29.840 
15:55	89.9	89.9	94.0	49	68.1	3	10	270	0.00	29.840 
16:00	90.5	90.5	95.1	49	68.7	2	6	248	0.00	29.837 
16:05	90.3	90.3	94.3	48	67.9	3	6	270	0.00	29.837 
16:10	89.9	89.9	94.0	49	68.1	3	7	270	0.00	29.837 
16:15	89.5	89.5	93.7	50	68.4	3	7	270	0.00	29.835 
16:20	89.5	89.5	94.1	51	68.9	2	6	270	0.00	29.835 
16:25	88.8	88.8	92.8	51	68.3	3	7	270	0.00	29.835 
16:30	88.4	88.4	92.1	51	67.9	3	10	270	0.00	29.840 
16:35	88.6	88.6	92.9	52	68.7	2	7	270	0.00	29.840 
16:40	88.6	88.6	92.9	52	68.7	2	5	270	0.00	29.840 
16:45	88.4	88.4	92.9	53	69.1	1	3	248	0.00	29.833 
16:50	88.2	88.2	92.1	52	68.3	1	5	248	0.00	29.833 
16:55	88.0	88.0	91.8	52	68.1	2	5	270	0.00	29.833 
17:00	86.7	86.7	89.3	51	66.4	1	3	0	0.00	29.842 
17:05	84.3	84.3	86.7	55	66.3	1	5	112	0.00	29.842 
17:10	83.4	83.4	86.3	59	67.5	1	5	90	0.00	29.842 
17:15	83.0	83.0	85.9	60	67.7	0	2	90	0.00	29.824 
17:20	83.0	83.0	86.4	62	68.6	0	1	90	0.00	29.824 
17:25	83.4	83.4	86.8	61	68.5	0	1	90	0.00	29.824 
17:30	83.8	83.8	87.7	62	69.4	0	1	90	0.00	29.825 
17:35	83.2	83.2	86.5	61	68.3	0	2	90	0.00	29.825 
17:40	82.6	82.6	85.7	62	68.2	0	2	90	0.00	29.825 
17:45	82.2	82.2	85.3	63	68.3	0	0	---	0.00	29.812 
17:50	81.6	81.6	84.6	64	68.2	0	1	90	0.00	29.812 
17:55	81.4	81.4	84.4	65	68.5	0	1	90	0.00	29.812 
18:00	81.2	81.2	84.0	64	67.8	0	2	90	0.00	29.808 
18:05	81.1	81.1	84.0	65	68.2	0	1	90	0.00	29.808 
18:10	81.1	81.1	83.8	64	67.7	0	1	90	0.00	29.808 
18:15	81.1	81.1	83.8	64	67.7	0	2	90	0.00	29.792 
18:20	81.1	81.1	83.8	64	67.7	0	2	90	0.00	29.792 
18:25	81.2	81.2	84.1	65	68.3	0	1	90	0.00	29.792 
18:30	81.4	81.4	84.6	66	68.9	0	1	90	0.00	29.781 
18:35	81.6	81.6	84.9	66	69.1	0	1	90	0.00	29.781 
18:40	81.8	81.8	85.3	66	69.3	0	1	90	0.00	29.781 
18:45	82.2	82.2	85.7	65	69.2	0	0	---	0.00	29.773 
18:50	82.4	82.4	86.1	65	69.4	0	1	90	0.00	29.773 
18:55	83.0	83.0	86.9	64	69.5	0	3	90	0.00	29.773 
19:00	83.6	83.6	87.1	61	68.7	1	5	248	0.00	29.766 
19:05	84.3	84.3	88.0	60	68.9	0	4	248	0.00	29.766 
19:10	84.7	84.7	88.4	59	68.8	0	2	270	0.00	29.766 
19:15	84.7	84.7	88.4	59	68.8	1	4	292	0.00	29.758 
19:20	85.1	85.1	88.8	58	68.6	1	6	270	0.00	29.758 
19:25	85.1	85.1	88.5	57	68.1	1	3	270	0.00	29.758 
19:30	85.1	85.1	88.5	57	68.1	1	4	270	0.00	29.747 
19:35	85.1	85.1	88.5	57	68.1	1	3	248	0.00	29.747 
19:40	84.9	84.9	88.2	57	67.9	1	5	45	0.00	29.747 
19:45	84.7	84.7	87.9	57	67.7	1	4	90	0.00	29.742 
19:50	84.5	84.5	87.8	58	68.1	0	2	90	0.00	29.742 
19:55	84.3	84.3	87.5	58	67.9	0	2	90	0.00	29.742 
20:00	84.1	84.1	87.2	58	67.7	1	4	338	0.00	29.745 
20:05	84.0	84.0	87.0	58	67.6	1	3	248	0.00	29.745 
20:10	83.8	83.8	86.9	59	67.9	1	3	292	0.00	29.745 
20:15	83.6	83.6	86.6	59	67.7	1	5	270	0.00	29.744 
20:20	83.8	83.8	86.7	58	67.4	1	4	270	0.00	29.744 
20:25	83.8	83.8	86.7	58	67.4	2	5	248	0.00	29.744 
20:30	83.8	83.8	86.7	58	67.4	1	5	270	0.00	29.747 
20:35	83.4	83.4	86.3	59	67.5	1	4	68	0.00	29.747 
20:40	83.4	83.4	86.3	59	67.5	1	4	225	0.00	29.747 
20:45	83.2	83.2	86.0	59	67.4	0	3	248	0.00	29.755 
20:50	83.2	83.2	86.2	60	67.8	2	7	248	0.00	29.755 
20:55	83.2	83.2	86.2	60	67.8	1	5	225	0.00	29.755 
21:00	83.0	83.0	85.9	60	67.7	1	4	248	0.00	29.761 
21:05	82.8	82.8	85.8	61	67.9	0	2	248	0.00	29.761 
21:10	82.6	82.6	85.5	61	67.8	1	5	270	0.00	29.761 
21:15	82.4	82.4	85.4	62	68.0	1	4	248	0.00	29.762 
21:20	82.2	82.2	85.1	62	67.9	1	3	248	0.00	29.762 
21:25	82.0	82.0	84.8	62	67.7	1	2	270	0.00	29.762 
21:30	82.0	82.0	85.0	63	68.1	1	5	248	0.00	29.764 
21:35	82.2	82.2	85.3	63	68.3	1	3	270	0.00	29.764 
21:40	82.0	82.0	85.0	63	68.1	0	1	270	0.00	29.764 
21:45	81.8	81.8	84.7	63	67.9	1	3	248	0.00	29.762 
21:50	81.6	81.6	84.6	64	68.2	1	5	248	0.00	29.762 
21:55	81.6	81.6	84.6	64	68.2	1	3	158	0.00	29.762 
22:00	81.6	81.6	84.4	63	67.8	1	4	270	0.00	29.763 
22:05	81.6	81.6	84.6	64	68.2	0	2	270	0.00	29.763 
22:10	81.4	81.4	84.3	64	68.0	0	1	248	0.00	29.763 
22:15	81.1	81.1	84.0	65	68.2	0	3	248	0.00	29.763 
22:20	80.9	80.9	83.7	65	68.0	0	2	315	0.00	29.763 
22:25	80.9	80.9	83.8	66	68.4	0	4	270	0.00	29.763 
22:30	80.7	80.7	83.5	66	68.3	1	3	68	0.00	29.761 
22:35	80.7	80.7	83.5	66	68.3	0	2	248	0.00	29.761 
22:40	80.3	80.3	83.0	67	68.3	0	2	248	0.00	29.761 
22:45	80.1	80.1	82.7	67	68.1	0	3	248	0.00	29.761 
22:50	80.1	80.1	82.7	67	68.1	0	3	248	0.00	29.761 
22:55	79.9	79.9	82.6	68	68.4	0	4	248	0.00	29.761 
23:00	79.9	79.9	82.6	68	68.4	0	2	248	0.00	29.764 
23:05	79.9	79.9	82.6	68	68.4	0	2	248	0.00	29.764 
23:10	79.8	79.8	82.5	69	68.7	0	2	292	0.00	29.764 
23:15	79.6	79.6	82.2	69	68.5	0	2	270	0.00	29.771 
23:20	79.4	79.4	81.9	69	68.3	0	1	270	0.00	29.771 
23:25	79.2	79.2	81.7	70	68.5	0	1	270	0.00	29.771 
23:30	79.2	79.2	81.7	70	68.5	0	1	270	0.00	29.774 
23:35	79.0	79.0	81.4	70	68.4	0	2	248	0.00	29.774 
23:40	79.2	79.2	81.7	70	68.5	1	4	248	0.00	29.774 
23:45	79.4	79.4	82.0	70	68.7	1	3	248	0.00	29.774 
23:50	79.6	79.6	82.2	69	68.5	1	2	270	0.00	29.774 
23:55	79.6	79.6	82.2	69	68.5	1	4	248	0.00	29.774 

CoCoRaHS
IN-AL-39
A2 Web Hosting
Creative Commons License
GoDaddy
Look for:

loaded 2017-10-17 18:28:43 • last modified 2010-11-18 10:43:29
Privacy PolicyDisclaimer
• wx.awcolley.com is powered by PmWiki v.2002016 •
• all content (unless otherwise noted) © 2017 A W Colley